| time (UTC) | temp F | wind direction | speed MPH | gust MPH | rain 1hr in | rain 24hr in | rain mn in | humidity % | barometer mb |
| 20260510033052 | 73 | 27 | 4.0 | 12.0 | 0.00 | 0.00 | 0.00 | 38 | 1023.2 |
| 20260510031552 | 73 | 30 | 5.0 | 10.0 | 0.00 | 0.00 | 0.00 | 39 | 1023.3 |
| 20260510030039 | 71 | 31 | 6.0 | 13.0 | 0.00 | 0.00 | 0.00 | 41 | 1023.4 |
| 20260510024504 | 70 | 14 | 5.0 | 15.0 | 0.00 | 0.00 | 0.00 | 43 | 1023.5 |
| 20260510023100 | 69 | 17 | 8.0 | 13.0 | 0.00 | 0.00 | 0.00 | 43 | 1023.7 |
| 20260510021554 | 69 | 26 | 8.0 | 13.0 | 0.00 | 0.00 | 0.00 | 44 | 1023.8 |
| 20260510020050 | 68 | 34 | 7.0 | 13.0 | 0.00 | 0.00 | 0.00 | 46 | 1024.0 |
| 20260510014544 | 66 | 35 | 7.0 | 12.0 | 0.00 | 0.00 | 0.00 | 49 | 1024.2 |
| 20260510013039 | 65 | 5 | 6.0 | 12.0 | 0.00 | 0.00 | 0.00 | 51 | 1024.2 |
| 20260510011535 | 64 | 38 | 4.0 | 10.0 | 0.00 | 0.00 | 0.00 | 53 | 1024.2 |
| 20260510010027 | 62 | 17 | 4.0 | 13.0 | 0.00 | 0.00 | 0.00 | 55 | 1024.4 |
| 20260510004522 | 61 | 30 | 4.0 | 16.0 | 0.00 | 0.00 | 0.00 | 56 | 1024.3 |
| 20260510003018 | 60 | 355 | 4.0 | 10.0 | 0.00 | 0.00 | 0.00 | 58 | 1024.2 |
| 20260510001513 | 58 | 9 | 4.0 | 9.0 | 0.00 | 0.00 | 0.00 | 62 | 1024.1 |
| 20260510000039 | 57 | 32 | 5.0 | 11.0 | 0.00 | 0.00 | 0.00 | 63 | 1023.9 |
| 20260509234538 | 56 | 15 | 4.0 | 9.0 | 0.00 | 0.00 | 0.00 | 63 | 1024.0 |
| 20260509233032 | 56 | 116 | 4.0 | 10.0 | 0.00 | 0.00 | 0.00 | 64 | 1024.1 |
| 20260509231531 | 55 | 22 | 4.0 | 8.0 | 0.00 | 0.00 | 0.00 | 63 | 1024.0 |
| 20260509230026 | 56 | 15 | 4.0 | 8.0 | 0.00 | 0.00 | 0.00 | 63 | 1023.7 |
| 20260509224524 | 56 | 26 | 4.0 | 9.0 | 0.00 | 0.00 | 0.00 | 62 | 1023.6 |
| 20260509223025 | 56 | 34 | 3.0 | 8.0 | 0.00 | 0.00 | 0.00 | 62 | 1023.7 |
| 20260509221520 | 56 | 9 | 3.0 | 8.0 | 0.00 | 0.00 | 0.00 | 61 | 1023.7 |
| 20260509220015 | 56 | 15 | 4.0 | 7.0 | 0.00 | 0.00 | 0.00 | 60 | 1023.5 |
| 20260509214512 | 56 | 32 | 3.0 | 9.0 | 0.00 | 0.00 | 0.00 | 60 | 1023.4 |
| 20260509213041 | 56 | 17 | 2.0 | 7.0 | 0.00 | 0.00 | 0.00 | 59 | 1023.4 |
| 20260509211538 | 57 | 22 | 1.0 | 9.0 | 0.00 | 0.00 | 0.00 | 58 | 1023.2 |
| 20260509210034 | 57 | 35 | 3.0 | 7.0 | 0.00 | 0.00 | 0.00 | 58 | 1023.1 |
| 20260509204531 | 57 | 35 | 3.0 | 7.0 | 0.00 | 0.00 | 0.00 | 58 | 1023.0 |
| 20260509203029 | 57 | 105 | 4.0 | 8.0 | 0.00 | 0.00 | 0.00 | 58 | 1022.9 |
| 20260509201526 | 57 | 14 | 3.0 | 8.0 | 0.00 | 0.00 | 0.00 | 58 | 1022.8 |
| 20260509194552 | 56 | 19 | 2.0 | 6.0 | 0.00 | 0.00 | 0.00 | 58 | 1022.7 |
| 20260509193048 | 56 | 46 | 2.0 | 8.0 | 0.00 | 0.00 | 0.00 | 58 | 1022.5 |
| 20260509191547 | 56 | 31 | 0.0 | 5.0 | 0.00 | 0.00 | 0.00 | 58 | 1022.7 |
| 20260509190058 | 56 | 38 | 1.0 | 5.0 | 0.00 | 0.00 | 0.00 | 57 | 1022.6 |
| 20260509184547 | 57 | 79 | 0.0 | 5.0 | 0.00 | 0.00 | 0.00 | 57 | 1022.6 |
| 20260509183041 | 56 | 42 | 0.0 | 4.0 | 0.00 | 0.00 | 0.00 | 57 | 1022.6 |
| 20260509181542 | 56 | 89 | 0.0 | 5.0 | 0.00 | 0.00 | 0.00 | 56 | 1022.6 |
| 20260509180039 | 56 | 63 | 0.0 | 5.0 | 0.00 | 0.00 | 0.00 | 55 | 1022.6 |
| 20260509174539 | 57 | 88 | 0.0 | 4.0 | 0.00 | 0.00 | 0.00 | 55 | 1022.7 |
| 20260509173035 | 57 | 103 | 1.0 | 5.0 | 0.00 | 0.00 | 0.00 | 54 | 1022.7 |
| 20260509171539 | 57 | 38 | 1.0 | 5.0 | 0.00 | 0.00 | 0.00 | 53 | 1022.7 |
| 20260509170035 | 57 | 69 | 0.0 | 5.0 | 0.00 | 0.00 | 0.00 | 53 | 1022.7 |
| 20260509164634 | 58 | 63 | 1.0 | 4.0 | 0.00 | 0.00 | 0.00 | 52 | 1022.8 |
| 20260509163034 | 58 | 34 | 0.0 | 5.0 | 0.00 | 0.00 | 0.00 | 52 | 1022.8 |
| 20260509161534 | 58 | 47 | 0.0 | 4.0 | 0.00 | 0.00 | 0.00 | 51 | 1022.9 |
| 20260509160030 | 58 | 94 | 1.0 | 5.0 | 0.00 | 0.00 | 0.00 | 51 | 1022.9 |
| 20260509154530 | 58 | 60 | 0.0 | 4.0 | 0.00 | 0.00 | 0.00 | 50 | 1023.0 |
| 20260509153026 | 58 | 51 | 0.0 | 4.0 | 0.00 | 0.00 | 0.00 | 50 | 1023.2 |
| 20260509151527 | 59 | 91 | 0.0 | 4.0 | 0.00 | 0.00 | 0.00 | 49 | 1023.2 |
| 20260509150034 | 59 | 20 | 0.0 | 3.0 | 0.00 | 0.00 | 0.00 | 49 | 1023.4 |
| 20260509144532 | 59 | 74 | 0.0 | 2.0 | 0.00 | 0.00 | 0.00 | 48 | 1023.5 |
| 20260509143022 | 60 | 62 | 0.0 | 2.0 | 0.00 | 0.00 | 0.00 | 48 | 1023.6 |
| 20260509141523 | 60 | 55 | 0.0 | 2.0 | 0.00 | 0.00 | 0.00 | 47 | 1023.6 |
| 20260509140021 | 61 | 54 | 0.0 | 4.0 | 0.00 | 0.00 | 0.00 | 46 | 1023.5 |
| 20260509134520 | 61 | 88 | 0.0 | 4.0 | 0.00 | 0.00 | 0.00 | 45 | 1023.3 |
| 20260509133016 | 62 | 51 | 0.0 | 4.0 | 0.00 | 0.00 | 0.00 | 45 | 1023.4 |
| 20260509131524 | 62 | 46 | 0.0 | 5.0 | 0.00 | 0.00 | 0.00 | 44 | 1023.4 |
| 20260509130017 | 63 | 46 | 0.0 | 4.0 | 0.00 | 0.00 | 0.00 | 43 | 1023.2 |
| 20260509124520 | 63 | 134 | 1.0 | 3.0 | 0.00 | 0.00 | 0.00 | 43 | 1023.1 |
| 20260509123012 | 63 | 64 | 1.0 | 5.0 | 0.00 | 0.00 | 0.00 | 42 | 1023.0 |
| 20260509121519 | 64 | 101 | 1.0 | 5.0 | 0.00 | 0.00 | 0.00 | 41 | 1023.0 |
| 20260509120011 | 65 | 63 | 0.0 | 4.0 | 0.00 | 0.00 | 0.00 | 41 | 1022.9 |
| 20260509114521 | 65 | 50 | 1.0 | 5.0 | 0.00 | 0.00 | 0.00 | 40 | 1022.7 |
| 20260509113008 | 65 | 80 | 1.0 | 5.0 | 0.00 | 0.00 | 0.00 | 40 | 1022.6 |
| 20260509111538 | 65 | 98 | 1.0 | 3.0 | 0.00 | 0.00 | 0.00 | 41 | 1022.7 |
| 20260509110037 | 66 | 81 | 1.0 | 4.0 | 0.00 | 0.00 | 0.00 | 41 | 1022.6 |
| 20260509104535 | 66 | 124 | 1.0 | 5.0 | 0.00 | 0.00 | 0.00 | 40 | 1022.6 |
| 20260509103034 | 67 | 98 | 1.0 | 3.0 | 0.00 | 0.00 | 0.00 | 40 | 1022.6 |
| 20260509101546 | 67 | 92 | 0.0 | 2.0 | 0.00 | 0.00 | 0.00 | 38 | 1022.5 |
| 20260509100032 | 68 | 91 | 0.0 | 4.0 | 0.00 | 0.00 | 0.00 | 37 | 1022.4 |
| 20260509094532 | 69 | 67 | 0.0 | 4.0 | 0.00 | 0.00 | 0.00 | 37 | 1022.4 |
| 20260509093032 | 70 | 67 | 0.0 | 4.0 | 0.00 | 0.00 | 0.00 | 36 | 1022.3 |
| 20260509091527 | 72 | 106 | 0.0 | 2.0 | 0.00 | 0.00 | 0.00 | 35 | 1022.2 |
| 20260509090028 | 73 | 80 | 0.0 | 5.0 | 0.00 | 0.00 | 0.00 | 34 | 1022.2 |
| 20260509084523 | 73 | 89 | 1.0 | 4.0 | 0.00 | 0.00 | 0.00 | 33 | 1022.2 |
| 20260509083022 | 75 | 82 | 0.0 | 4.0 | 0.00 | 0.00 | 0.00 | 32 | 1022.1 |
| 20260509081521 | 75 | 57 | 1.0 | 5.0 | 0.00 | 0.00 | 0.00 | 31 | 1022.2 |
| 20260509080021 | 76 | 10 | 4.0 | 8.0 | 0.00 | 0.00 | 0.00 | 29 | 1022.1 |
| 20260509074515 | 75 | 341 | 2.0 | 7.0 | 0.00 | 0.00 | 0.00 | 31 | 1022.1 |
| 20260509073012 | 75 | 138 | 1.0 | 6.0 | 0.00 | 0.00 | 0.00 | 32 | 1022.0 |
| 20260509071510 | 74 | 78 | 2.0 | 7.0 | 0.00 | 0.00 | 0.00 | 33 | 1021.8 |
| 20260509070010 | 75 | 78 | 2.0 | 7.0 | 0.00 | 0.00 | 0.00 | 33 | 1021.7 |
| 20260509064550 | 75 | 49 | 2.0 | 11.0 | 0.00 | 0.00 | 0.00 | 33 | 1021.7 |
| 20260509063042 | 75 | 204 | 1.0 | 8.0 | 0.00 | 0.00 | 0.00 | 33 | 1021.7 |
| 20260509061532 | 75 | 69 | 1.0 | 7.0 | 0.00 | 0.00 | 0.00 | 34 | 1021.6 |
| 20260509060031 | 74 | 113 | 2.0 | 9.0 | 0.00 | 0.00 | 0.00 | 35 | 1021.7 |
| 20260509054529 | 74 | 30 | 3.0 | 6.0 | 0.00 | 0.00 | 0.00 | 36 | 1021.8 |
| 20260509053027 | 74 | 13 | 3.0 | 9.0 | 0.00 | 0.00 | 0.00 | 37 | 1022.0 |
| 20260509051526 | 74 | 22 | 3.0 | 11.0 | 0.00 | 0.00 | 0.00 | 36 | 1022.2 |
| 20260509050023 | 74 | 80 | 5.0 | 10.0 | 0.00 | 0.00 | 0.00 | 36 | 1022.3 |
| 20260509044517 | 74 | 18 | 3.0 | 8.0 | 0.00 | 0.00 | 0.00 | 37 | 1022.6 |
| 20260509043013 | 73 | 58 | 3.0 | 12.0 | 0.00 | 0.00 | 0.00 | 38 | 1022.8 |
| 20260509041507 | 72 | 32 | 4.0 | 13.0 | 0.00 | 0.00 | 0.00 | 39 | 1023.2 |
| 20260509040004 | 72 | 85 | 4.0 | 15.0 | 0.00 | 0.00 | 0.00 | 39 | 1023.5 |
| 20260509034559 | 71 | 13 | 6.0 | 13.0 | 0.00 | 0.00 | 0.00 | 39 | 1024.0 |